Погода в Шишкином Лесу

Россия / Московская область     55°24′43″N   37°11′17″E
темп.,
°C
ветер,
м/с
пор.,
м/с
влажн.,
%
обл.,
%
осадки,
мм/ч
давл.,
гПа
погр.,
м
24 сентября, пт
пт2400:00+6ю239568 0.0 100954
03:00+5ю269899 0.0 1007144
06:00+6ю3893100 0.0 1006388
09:00+7ююв4985100 0.0 1005711
12:00+9ююв61275100 0.1 10041316
15:00+9ююв61071100 0.1 10031149
18:00+9ююв51071100 0.0 1003858
21:00+8ююв51175100 0.0 10041266
25 сентября, сб
сб2500:00+8юв3881100 0.0 1004716
03:00+8юв4987100 0.1 1005531
06:00+7ююв3891100 0.1 1006413
09:00+8ю3888100 0.1 1007492
12:00+9ю3684100 0.0 1007605
15:00+11ю4575100 0.1 1007800
18:00+10ю3785100 0.0 1007392
21:00+9ю3791100 0.4 1007269
26 сентября, вс
вс2600:00+8юз2692100 0.1 1006279
03:00+8юз2697100 2.1 1005404
06:00+8зсз3897100 0.9 1005573
09:00+8сз51093100 1.8 1006922
12:00+8сз61089100 0.9 10071184
15:00+8ссз71187100 1.4 10091187
18:00+8ссз61293100 2.6 1011923
21:00+8с41094100 2.9 1013519
27 сентября, пн
пн2700:00+8ссз4895100 0.0 1015438
03:00+8с3995100 0.1 1017370
06:00+8с389367 0.1 1019338
09:00+9с4108795 0.1 1020540
12:00+11с5770100 0.0 1021929
15:00+11с4671100 0.1 10221069
18:00+9ссв4785100 0.4 1024590
21:00+8с3791100 0.6 1025449
28 сентября, вт
вт2800:00+8ссв3791100 0.0 1026458
03:00+8ссв3692100 0.0 1028411
06:00+8ссв3793100 0.1 1029521
09:00+8св3691100 0.1 1030490
12:00+9всв347994 0.1 1031728
15:00+10св347293 0.1 1032884
18:00+8св2374100 0.0 1032132
21:00+7ссв2275100 0.0 103327